| time (UTC) | temp F | wind direction | speed MPH | gust MPH | rain 1hr in | rain 24hr in | rain mn in | humidity % | barometer mb |
| 20260904164512 | 84 | 50 | 7.0 | 10.0 | 0.00 | 0.00 | 0.00 | 51 | 1017.5 |
| 20260904164013 | 84 | 42 | 5.0 | 8.0 | 0.00 | 0.00 | 0.00 | 49 | 1017.5 |
| 20260904163518 | 84 | 55 | 4.0 | 9.0 | 0.00 | 0.00 | 0.00 | 48 | 1017.5 |
| 20260904163019 | 84 | 45 | 6.0 | 10.0 | 0.00 | 0.00 | 0.00 | 48 | 1017.6 |
| 20260904162510 | 85 | 38 | 9.0 | 12.0 | 0.00 | 0.00 | 0.00 | 47 | 1017.5 |
| 20260904161020 | 86 | 41 | 5.0 | 12.0 | 0.00 | 0.00 | 0.00 | 41 | 1017.5 |
| 20260904160510 | 86 | 45 | 6.0 | 13.0 | 0.00 | 0.00 | 0.00 | 37 | 1017.6 |
| 20260904160020 | 86 | 47 | 5.0 | 12.0 | 0.00 | 0.00 | 0.00 | 36 | 1017.5 |
| 20260904155510 | 87 | 47 | 7.0 | 12.0 | 0.00 | 0.00 | 0.00 | 35 | 1017.5 |
| 20260904155011 | 87 | 50 | 6.0 | 13.0 | 0.00 | 0.00 | 0.00 | 34 | 1017.5 |
| 20260904154510 | 87 | 42 | 7.0 | 13.0 | 0.00 | 0.00 | 0.00 | 32 | 1017.5 |
| 20260904153510 | 88 | 41 | 5.0 | 9.0 | 0.00 | 0.00 | 0.00 | 31 | 1017.5 |
| 20260904153019 | 88 | 51 | 5.0 | 8.0 | 0.00 | 0.00 | 0.00 | 32 | 1017.5 |
| 20260904152510 | 88 | 42 | 6.0 | 10.0 | 0.00 | 0.00 | 0.00 | 31 | 1017.5 |
| 20260904152017 | 88 | 45 | 5.0 | 10.0 | 0.00 | 0.00 | 0.00 | 31 | 1017.4 |
| 20260904151021 | 89 | 47 | 6.0 | 12.0 | 0.00 | 0.00 | 0.00 | 31 | 1017.5 |
| 20260904150510 | 88 | 40 | 6.0 | 15.0 | 0.00 | 0.00 | 0.00 | 32 | 1017.5 |
| 20260904150018 | 89 | 51 | 4.0 | 13.0 | 0.00 | 0.00 | 0.00 | 33 | 1017.5 |
| 20260904145510 | 88 | 36 | 4.0 | 9.0 | 0.00 | 0.00 | 0.00 | 33 | 1017.5 |
| 20260904144512 | 88 | 39 | 5.0 | 9.0 | 0.00 | 0.00 | 0.00 | 35 | 1017.4 |
| 20260904144012 | 88 | 45 | 7.0 | 12.0 | 0.00 | 0.00 | 0.00 | 35 | 1017.5 |
| 20260904143519 | 89 | 48 | 5.0 | 9.0 | 0.00 | 0.00 | 0.00 | 36 | 1017.4 |
| 20260904143019 | 88 | 30 | 2.0 | 12.0 | 0.00 | 0.00 | 0.00 | 38 | 1017.5 |
| 20260904142511 | 88 | 47 | 6.0 | 12.0 | 0.00 | 0.00 | 0.00 | 36 | 1017.5 |
| 20260904142013 | 88 | 47 | 6.0 | 10.0 | 0.00 | 0.00 | 0.00 | 37 | 1017.5 |
| 20260904141511 | 88 | 28 | 5.0 | 12.0 | 0.00 | 0.00 | 0.00 | 38 | 1017.5 |
| 20260904141018 | 89 | 43 | 6.0 | 9.0 | 0.00 | 0.00 | 0.00 | 37 | 1017.6 |
| 20260904140012 | 88 | 50 | 7.0 | 16.0 | 0.00 | 0.00 | 0.00 | 38 | 1017.5 |
| 20260904135510 | 88 | 45 | 3.0 | 13.0 | 0.00 | 0.00 | 0.00 | 39 | 1017.5 |
| 20260904135016 | 88 | 46 | 6.0 | 13.0 | 0.00 | 0.00 | 0.00 | 39 | 1017.5 |
| 20260904134511 | 88 | 44 | 7.0 | 12.0 | 0.00 | 0.00 | 0.00 | 39 | 1017.6 |
| 20260904134019 | 88 | 58 | 8.0 | 15.0 | 0.00 | 0.00 | 0.00 | 40 | 1017.5 |
| 20260904133510 | 88 | 40 | 8.0 | 13.0 | 0.00 | 0.00 | 0.00 | 40 | 1017.6 |
| 20260904133011 | 88 | 42 | 6.0 | 17.0 | 0.00 | 0.00 | 0.00 | 40 | 1017.5 |
| 20260904132019 | 89 | 39 | 6.0 | 12.0 | 0.00 | 0.00 | 0.00 | 41 | 1017.7 |
| 20260904131518 | 88 | 42 | 4.0 | 12.0 | 0.00 | 0.00 | 0.00 | 39 | 1017.8 |
| 20260904131013 | 88 | 45 | 9.0 | 14.0 | 0.00 | 0.00 | 0.00 | 41 | 1017.8 |
| 20260904130511 | 88 | 39 | 6.0 | 12.0 | 0.00 | 0.00 | 0.00 | 42 | 1017.9 |
| 20260904130019 | 88 | 44 | 6.0 | 12.0 | 0.00 | 0.00 | 0.00 | 44 | 1017.8 |
| 20260904125018 | 88 | 52 | 6.0 | 15.0 | 0.00 | 0.00 | 0.00 | 39 | 1017.9 |
| 20260904124518 | 88 | 47 | 5.0 | 15.0 | 0.00 | 0.00 | 0.00 | 42 | 1017.9 |
| 20260904122018 | 88 | 43 | 6.0 | 12.0 | 0.00 | 0.00 | 0.00 | 50 | 1018.1 |
| 20260904121518 | 88 | 43 | 3.0 | 12.0 | 0.00 | 0.00 | 0.00 | 48 | 1018.1 |
| 20260904121018 | 88 | 41 | 6.0 | 12.0 | 0.00 | 0.00 | 0.00 | 47 | 1018.1 |
| 20260904120517 | 88 | 41 | 6.0 | 10.0 | 0.00 | 0.00 | 0.00 | 50 | 1018.2 |
| 20260904120020 | 88 | 47 | 5.0 | 12.0 | 0.00 | 0.00 | 0.00 | 51 | 1018.2 |
| 20260904115519 | 87 | 35 | 7.0 | 13.0 | 0.00 | 0.00 | 0.00 | 51 | 1018.3 |
| 20260904114519 | 87 | 51 | 3.0 | 10.0 | 0.00 | 0.00 | 0.00 | 55 | 1018.3 |
| 20260904114011 | 87 | 38 | 6.0 | 13.0 | 0.00 | 0.00 | 0.00 | 53 | 1018.4 |
| 20260904113517 | 87 | 47 | 7.0 | 13.0 | 0.00 | 0.00 | 0.00 | 55 | 1018.5 |
| 20260904113018 | 86 | 44 | 5.0 | 9.0 | 0.00 | 0.00 | 0.00 | 56 | 1018.5 |
| 20260904112509 | 86 | 56 | 5.0 | 12.0 | 0.00 | 0.00 | 0.00 | 55 | 1018.6 |
| 20260904112018 | 88 | 49 | 3.0 | 12.0 | 0.00 | 0.00 | 0.00 | 55 | 1018.5 |
| 20260904111013 | 87 | 46 | 5.0 | 14.0 | 0.00 | 0.00 | 0.00 | 55 | 1018.4 |
| 20260904110517 | 87 | 45 | 4.0 | 12.0 | 0.00 | 0.00 | 0.00 | 54 | 1018.5 |
| 20260904110020 | 87 | 44 | 5.0 | 12.0 | 0.00 | 0.00 | 0.00 | 55 | 1018.5 |
| 20260904105511 | 87 | 43 | 7.0 | 12.0 | 0.00 | 0.00 | 0.00 | 55 | 1018.4 |
| 20260904105019 | 87 | 31 | 7.0 | 14.0 | 0.00 | 0.00 | 0.00 | 53 | 1018.4 |
| 20260904104518 | 87 | 56 | 5.0 | 10.0 | 0.00 | 0.00 | 0.00 | 54 | 1018.4 |
| 20260904104020 | 86 | 37 | 7.0 | 12.0 | 0.00 | 0.00 | 0.00 | 55 | 1018.4 |
| 20260904103518 | 86 | 39 | 7.0 | 13.0 | 0.00 | 0.00 | 0.00 | 54 | 1018.5 |
| 20260904102517 | 86 | 42 | 7.0 | 14.0 | 0.00 | 0.00 | 0.00 | 57 | 1018.5 |
| 20260904102018 | 86 | 36 | 6.0 | 16.0 | 0.00 | 0.00 | 0.00 | 56 | 1018.5 |
| 20260904101518 | 86 | 47 | 7.0 | 17.0 | 0.00 | 0.00 | 0.00 | 56 | 1018.5 |
| 20260904101020 | 86 | 48 | 6.0 | 14.0 | 0.00 | 0.00 | 0.00 | 56 | 1018.5 |
| 20260904100518 | 86 | 44 | 6.0 | 12.0 | 0.00 | 0.00 | 0.00 | 55 | 1018.5 |
| 20260904100019 | 86 | 42 | 6.0 | 13.0 | 0.00 | 0.00 | 0.00 | 57 | 1018.5 |
| 20260904095018 | 85 | 34 | 7.0 | 14.0 | 0.00 | 0.00 | 0.00 | 59 | 1018.5 |
| 20260904094518 | 85 | 36 | 6.0 | 15.0 | 0.00 | 0.00 | 0.00 | 60 | 1018.5 |
| 20260904094016 | 85 | 49 | 6.0 | 20.0 | 0.00 | 0.00 | 0.00 | 59 | 1018.5 |
| 20260904093519 | 85 | 49 | 6.0 | 13.0 | 0.00 | 0.00 | 0.00 | 60 | 1018.5 |
| 20260904093019 | 85 | 46 | 6.0 | 12.0 | 0.00 | 0.00 | 0.00 | 59 | 1018.5 |
| 20260904091518 | 85 | 51 | 7.0 | 12.0 | 0.00 | 0.00 | 0.00 | 59 | 1018.5 |
| 20260904091011 | 85 | 50 | 7.0 | 12.0 | 0.00 | 0.00 | 0.00 | 60 | 1018.6 |
| 20260904090019 | 84 | 50 | 6.0 | 14.0 | 0.00 | 0.00 | 0.00 | 61 | 1018.5 |
| 20260904085018 | 85 | 39 | 5.0 | 12.0 | 0.00 | 0.00 | 0.00 | 59 | 1018.6 |
| 20260904084511 | 84 | 52 | 5.0 | 13.0 | 0.00 | 0.00 | 0.00 | 60 | 1018.6 |
| 20260904083518 | 84 | 47 | 7.0 | 12.0 | 0.00 | 0.00 | 0.00 | 61 | 1018.5 |
| 20260904083020 | 84 | 49 | 6.0 | 12.0 | 0.00 | 0.00 | 0.00 | 62 | 1018.4 |
| 20260904082517 | 83 | 51 | 7.0 | 18.0 | 0.00 | 0.00 | 0.00 | 62 | 1018.4 |
| 20260904081518 | 83 | 30 | 3.0 | 12.0 | 0.00 | 0.00 | 0.00 | 63 | 1018.3 |
| 20260904081018 | 83 | 44 | 6.0 | 12.0 | 0.00 | 0.00 | 0.00 | 64 | 1018.3 |
| 20260904080518 | 82 | 46 | 6.0 | 13.0 | 0.00 | 0.00 | 0.00 | 64 | 1018.3 |
| 20260904080019 | 82 | 53 | 5.0 | 13.0 | 0.00 | 0.00 | 0.00 | 65 | 1018.2 |
| 20260904075509 | 82 | 50 | 6.0 | 13.0 | 0.00 | 0.00 | 0.00 | 64 | 1018.1 |
| 20260904075018 | 82 | 43 | 5.0 | 12.0 | 0.00 | 0.00 | 0.00 | 64 | 1018.0 |
| 20260904074518 | 82 | 49 | 6.0 | 12.0 | 0.00 | 0.00 | 0.00 | 64 | 1018.0 |
| 20260904074018 | 82 | 56 | 6.0 | 10.0 | 0.00 | 0.00 | 0.00 | 64 | 1017.9 |
| 20260904073517 | 82 | 59 | 5.0 | 9.0 | 0.00 | 0.00 | 0.00 | 64 | 1017.9 |
| 20260904073018 | 81 | 50 | 5.0 | 10.0 | 0.00 | 0.00 | 0.00 | 65 | 1017.8 |
| 20260904072517 | 81 | 43 | 7.0 | 12.0 | 0.00 | 0.00 | 0.00 | 65 | 1017.8 |
| 20260904071518 | 81 | 43 | 5.0 | 8.0 | 0.00 | 0.00 | 0.00 | 64 | 1017.7 |
| 20260904071019 | 81 | 40 | 4.0 | 8.0 | 0.00 | 0.00 | 0.00 | 64 | 1017.6 |
| 20260904070010 | 81 | 30 | 3.0 | 7.0 | 0.00 | 0.00 | 0.00 | 64 | 1017.5 |
| 20260904065517 | 80 | 47 | 5.0 | 10.0 | 0.00 | 0.00 | 0.00 | 64 | 1017.4 |
| 20260904065019 | 81 | 33 | 3.0 | 8.0 | 0.00 | 0.00 | 0.00 | 64 | 1017.4 |
| 20260904064515 | 80 | 8 | 3.0 | 7.0 | 0.00 | 0.00 | 0.00 | 63 | 1017.3 |
| 20260904064014 | 80 | 12 | 2.0 | 3.0 | 0.00 | 0.00 | 0.00 | 64 | 1017.3 |
| 20260904063509 | 80 | 292 | 3.0 | 7.0 | 0.00 | 0.00 | 0.00 | 64 | 1017.3 |
| 20260904063017 | 80 | 48 | 3.0 | 7.0 | 0.00 | 0.00 | 0.00 | 64 | 1017.2 |
| 20260904062512 | 79 | 22 | 3.0 | 8.0 | 0.00 | 0.00 | 0.00 | 65 | 1017.2 |
| 20260904062019 | 79 | 49 | 2.0 | 5.0 | 0.00 | 0.00 | 0.00 | 65 | 1017.3 |
| 20260904061519 | 78 | 291 | 1.0 | 5.0 | 0.00 | 0.00 | 0.00 | 66 | 1017.2 |
| 20260904060510 | 77 | 291 | 1.0 | 3.0 | 0.00 | 0.00 | 0.00 | 67 | 1017.3 |
| 20260904060019 | 77 | 287 | 0.0 | 3.0 | 0.00 | 0.00 | 0.00 | 68 | 1017.3 |
| 20260904055019 | 76 | 280 | 1.0 | 3.0 | 0.00 | 0.00 | 0.00 | 69 | 1017.2 |
| 20260904054521 | 75 | 256 | 0.0 | 1.0 | 0.00 | 0.00 | 0.00 | 70 | 1017.1 |
| 20260904054018 | 75 | 255 | 0.0 | 2.0 | 0.00 | 0.00 | 0.00 | 71 | 1017.1 |
| 20260904053517 | 74 | 33 | 1.0 | 3.0 | 0.00 | 0.00 | 0.00 | 71 | 1017.1 |
| 20260904053018 | 74 | 263 | 1.0 | 5.0 | 0.00 | 0.00 | 0.00 | 72 | 1017.1 |
| 20260904052017 | 73 | 229 | 0.0 | 3.0 | 0.00 | 0.00 | 0.00 | 72 | 1017.0 |
| 20260904051518 | 73 | 270 | 1.0 | 3.0 | 0.00 | 0.00 | 0.00 | 73 | 1017.0 |
| 20260904050515 | 73 | 22 | 0.0 | 3.0 | 0.00 | 0.00 | 0.00 | 73 | 1017.0 |
| 20260904045018 | 72 | 243 | 1.0 | 3.0 | 0.00 | 0.00 | 0.00 | 74 | 1016.7 |
| 20260904044519 | 72 | 233 | 1.0 | 3.0 | 0.00 | 0.00 | 0.00 | 74 | 1016.6 |
| 20260904044018 | 72 | 244 | 1.0 | 5.0 | 0.00 | 0.00 | 0.00 | 74 | 1016.6 |
| 20260904043517 | 72 | 232 | 1.0 | 5.0 | 0.00 | 0.00 | 0.00 | 74 | 1016.6 |
| 20260904043018 | 72 | 256 | 1.0 | 3.0 | 0.00 | 0.00 | 0.00 | 74 | 1016.6 |
| 20260904042517 | 72 | 244 | 1.0 | 3.0 | 0.00 | 0.00 | 0.00 | 74 | 1016.5 |
| 20260904042018 | 72 | 245 | 0.0 | 2.0 | 0.00 | 0.00 | 0.00 | 74 | 1016.6 |
| 20260904041518 | 72 | 298 | 1.0 | 3.0 | 0.00 | 0.00 | 0.00 | 74 | 1016.6 |
| 20260904040519 | 72 | 238 | 0.0 | 2.0 | 0.00 | 0.00 | 0.00 | 73 | 1016.5 |
| 20260904040019 | 72 | 245 | 2.0 | 3.0 | 0.00 | 0.00 | 0.00 | 73 | 1016.4 |
| 20260904035517 | 72 | 257 | 2.0 | 5.0 | 0.00 | 0.00 | 0.00 | 73 | 1016.4 |
| 20260904035018 | 72 | 248 | 2.0 | 6.0 | 0.00 | 0.00 | 0.00 | 72 | 1016.4 |
| 20260904034518 | 72 | 246 | 2.0 | 5.0 | 0.00 | 0.00 | 0.00 | 72 | 1016.4 |
| 20260904034018 | 72 | 250 | 3.0 | 5.0 | 0.00 | 0.00 | 0.00 | 72 | 1016.5 |
| 20260904033518 | 72 | 251 | 2.0 | 5.0 | 0.00 | 0.00 | 0.00 | 72 | 1016.5 |
| 20260904033019 | 72 | 241 | 2.0 | 5.0 | 0.00 | 0.00 | 0.00 | 71 | 1016.6 |
| 20260904032019 | 73 | 252 | 1.0 | 3.0 | 0.00 | 0.00 | 0.00 | 71 | 1016.6 |
| 20260904030019 | 73 | 248 | 1.0 | 3.0 | 0.00 | 0.00 | 0.00 | 70 | 1016.5 |
| 20260904025511 | 73 | 252 | 1.0 | 3.0 | 0.00 | 0.00 | 0.00 | 70 | 1016.5 |
| 20260904025019 | 73 | 244 | 1.0 | 3.0 | 0.00 | 0.00 | 0.00 | 70 | 1016.5 |
| 20260904024518 | 73 | 245 | 2.0 | 3.0 | 0.00 | 0.00 | 0.00 | 70 | 1016.4 |
| 20260904024013 | 73 | 242 | 1.0 | 3.0 | 0.00 | 0.00 | 0.00 | 70 | 1016.4 |
| 20260904023517 | 73 | 249 | 2.0 | 3.0 | 0.00 | 0.00 | 0.00 | 71 | 1016.4 |
| 20260904023019 | 73 | 248 | 1.0 | 3.0 | 0.00 | 0.00 | 0.00 | 71 | 1016.4 |
| 20260904022516 | 73 | 244 | 1.0 | 3.0 | 0.00 | 0.00 | 0.00 | 71 | 1016.4 |
| 20260904021518 | 73 | 244 | 1.0 | 3.0 | 0.00 | 0.00 | 0.00 | 71 | 1016.4 |
| 20260904021014 | 73 | 236 | 1.0 | 3.0 | 0.00 | 0.00 | 0.00 | 71 | 1016.4 |
| 20260904020517 | 73 | 249 | 0.0 | 5.0 | 0.00 | 0.00 | 0.00 | 71 | 1016.4 |
| 20260904020014 | 73 | 255 | 2.0 | 5.0 | 0.00 | 0.00 | 0.00 | 72 | 1016.4 |
| 20260904015517 | 73 | 244 | 1.0 | 3.0 | 0.00 | 0.00 | 0.00 | 72 | 1016.5 |
| 20260904015018 | 73 | 256 | 1.0 | 3.0 | 0.00 | 0.00 | 0.00 | 72 | 1016.5 |
| 20260904014017 | 74 | 249 | 1.0 | 3.0 | 0.00 | 0.00 | 0.00 | 72 | 1016.5 |
| 20260904013511 | 74 | 240 | 1.0 | 5.0 | 0.00 | 0.00 | 0.00 | 72 | 1016.5 |
| 20260904013019 | 74 | 239 | 1.0 | 3.0 | 0.00 | 0.00 | 0.00 | 71 | 1016.5 |
| 20260904012018 | 74 | 249 | 2.0 | 5.0 | 0.00 | 0.00 | 0.00 | 71 | 1016.6 |
| 20260904011518 | 74 | 246 | 1.0 | 3.0 | 0.00 | 0.00 | 0.00 | 71 | 1016.5 |
| 20260904011018 | 74 | 251 | 1.0 | 5.0 | 0.00 | 0.00 | 0.00 | 71 | 1016.5 |
| 20260904010517 | 74 | 248 | 2.0 | 5.0 | 0.00 | 0.00 | 0.00 | 71 | 1016.4 |
| 20260904010019 | 74 | 249 | 1.0 | 3.0 | 0.00 | 0.00 | 0.00 | 70 | 1016.4 |
| 20260904005517 | 74 | 228 | 0.0 | 3.0 | 0.00 | 0.00 | 0.00 | 70 | 1016.4 |
| 20260904005018 | 74 | 268 | 0.0 | 2.0 | 0.00 | 0.00 | 0.00 | 70 | 1016.5 |
| 20260904004517 | 74 | 267 | 0.0 | 2.0 | 0.00 | 0.00 | 0.00 | 70 | 1016.4 |
| 20260904004018 | 74 | 263 | 1.0 | 5.0 | 0.00 | 0.00 | 0.00 | 69 | 1016.4 |
| 20260904003516 | 74 | 246 | 1.0 | 6.0 | 0.00 | 0.00 | 0.00 | 69 | 1016.4 |
| 20260904003018 | 74 | 243 | 0.0 | 2.0 | 0.00 | 0.00 | 0.00 | 69 | 1016.4 |
| 20260904002018 | 74 | 254 | 0.0 | 2.0 | 0.00 | 0.00 | 0.00 | 68 | 1016.4 |
| 20260904001508 | 74 | 254 | 1.0 | 3.0 | 0.00 | 0.00 | 0.00 | 68 | 1016.4 |
| 20260904001018 | 74 | 252 | 1.0 | 3.0 | 0.00 | 0.00 | 0.00 | 68 | 1016.4 |
| 20260904000508 | 74 | 252 | 1.0 | 3.0 | 0.00 | 0.00 | 0.00 | 68 | 1016.4 |
| 20260904000017 | 74 | 271 | 2.0 | 5.0 | 0.00 | 0.00 | 0.00 | 68 | 1016.5 |
| 20260903235018 | 74 | 253 | 0.0 | 3.0 | 0.00 | 0.00 | 0.00 | 68 | 1016.5 |
| 20260903234518 | 74 | 241 | 0.0 | 3.0 | 0.00 | 0.00 | 0.00 | 68 | 1016.5 |
| 20260903234018 | 74 | 228 | 0.0 | 2.0 | 0.00 | 0.00 | 0.00 | 67 | 1016.4 |
| 20260903233517 | 74 | 230 | 0.0 | 3.0 | 0.00 | 0.00 | 0.00 | 68 | 1016.5 |
| 20260903233019 | 74 | 247 | 2.0 | 5.0 | 0.00 | 0.00 | 0.00 | 68 | 1016.5 |
| 20260903232517 | 74 | 250 | 0.0 | 3.0 | 0.00 | 0.00 | 0.00 | 68 | 1016.5 |
| 20260903232018 | 74 | 257 | 2.0 | 5.0 | 0.00 | 0.00 | 0.00 | 68 | 1016.4 |
| 20260903231517 | 74 | 245 | 2.0 | 3.0 | 0.00 | 0.00 | 0.00 | 68 | 1016.4 |
| 20260903231015 | 74 | 238 | 2.0 | 3.0 | 0.00 | 0.00 | 0.00 | 68 | 1016.5 |
| 20260903230517 | 74 | 247 | 2.0 | 3.0 | 0.00 | 0.00 | 0.00 | 68 | 1016.5 |
| 20260903230019 | 74 | 252 | 1.0 | 3.0 | 0.00 | 0.00 | 0.00 | 68 | 1016.6 |
| 20260903225517 | 74 | 256 | 0.0 | 3.0 | 0.00 | 0.00 | 0.00 | 68 | 1016.6 |
| 20260903225017 | 74 | 257 | 0.0 | 2.0 | 0.00 | 0.00 | 0.00 | 68 | 1016.6 |
| 20260903224512 | 74 | 29 | 0.0 | 3.0 | 0.00 | 0.00 | 0.00 | 68 | 1016.6 |
| 20260903224010 | 74 | 52 | 1.0 | 3.0 | 0.00 | 0.00 | 0.00 | 69 | 1016.6 |
| 20260903223517 | 74 | 266 | 1.0 | 3.0 | 0.00 | 0.00 | 0.00 | 69 | 1016.7 |
| 20260903223013 | 74 | 268 | 0.0 | 3.0 | 0.00 | 0.00 | 0.00 | 69 | 1016.6 |
| 20260903222511 | 74 | 291 | 1.0 | 3.0 | 0.00 | 0.00 | 0.00 | 70 | 1016.6 |
| 20260903221517 | 74 | 237 | 0.0 | 3.0 | 0.00 | 0.00 | 0.00 | 70 | 1016.6 |
| 20260903220512 | 74 | 238 | 1.0 | 2.0 | 0.00 | 0.00 | 0.00 | 69 | 1016.6 |
| 20260903215019 | 74 | 246 | 1.0 | 3.0 | 0.00 | 0.00 | 0.00 | 68 | 1016.7 |
| 20260903214518 | 74 | 208 | 1.0 | 5.0 | 0.00 | 0.00 | 0.00 | 68 | 1016.7 |
| 20260903214018 | 74 | 239 | 1.0 | 3.0 | 0.00 | 0.00 | 0.00 | 69 | 1016.7 |
| 20260903213512 | 74 | 251 | 0.0 | 2.0 | 0.00 | 0.00 | 0.00 | 69 | 1016.7 |
| 20260903212510 | 74 | 244 | 1.0 | 2.0 | 0.00 | 0.00 | 0.00 | 70 | 1016.7 |
| 20260903212018 | 74 | 59 | 1.0 | 6.0 | 0.00 | 0.00 | 0.00 | 72 | 1016.6 |
| 20260903210509 | 74 | 247 | 2.0 | 5.0 | 0.00 | 0.00 | 0.00 | 76 | 1016.6 |
| 20260903210020 | 74 | 231 | 2.0 | 3.0 | 0.00 | 0.00 | 0.00 | 76 | 1016.6 |
| 20260903205517 | 74 | 245 | 2.0 | 3.0 | 0.00 | 0.00 | 0.00 | 77 | 1016.6 |
| 20260903205018 | 74 | 245 | 1.0 | 3.0 | 0.00 | 0.00 | 0.00 | 77 | 1016.6 |
| 20260903204517 | 74 | 245 | 1.0 | 3.0 | 0.00 | 0.00 | 0.00 | 77 | 1016.5 |
| 20260903204011 | 74 | 245 | 1.0 | 3.0 | 0.00 | 0.00 | 0.00 | 77 | 1016.6 |
| 20260903203516 | 74 | 245 | 1.0 | 2.0 | 0.00 | 0.00 | 0.00 | 76 | 1016.6 |
| 20260903203019 | 75 | 275 | 1.0 | 2.0 | 0.00 | 0.00 | 0.00 | 74 | 1016.6 |
| 20260903202516 | 76 | 275 | 0.0 | 1.0 | 0.00 | 0.00 | 0.00 | 73 | 1016.6 |
| 20260903202017 | 77 | 275 | 0.0 | 1.0 | 0.00 | 0.00 | 0.00 | 73 | 1016.6 |
| 20260903201518 | 77 | 341 | 1.0 | 3.0 | 0.00 | 0.00 | 0.00 | 73 | 1016.5 |
| 20260903200517 | 77 | 344 | 2.0 | 3.0 | 0.00 | 0.00 | 0.00 | 72 | 1016.6 |
| 20260903200019 | 78 | 11 | 1.0 | 3.0 | 0.00 | 0.00 | 0.00 | 72 | 1016.5 |
| 20260903195511 | 78 | 28 | 1.0 | 5.0 | 0.00 | 0.00 | 0.00 | 71 | 1016.5 |
| 20260903194517 | 78 | 49 | 1.0 | 5.0 | 0.00 | 0.00 | 0.00 | 71 | 1016.4 |
| 20260903194018 | 78 | 42 | 2.0 | 3.0 | 0.00 | 0.00 | 0.00 | 71 | 1016.4 |
| 20260903193517 | 78 | 48 | 1.0 | 3.0 | 0.00 | 0.00 | 0.00 | 70 | 1016.3 |
| 20260903193019 | 78 | 37 | 2.0 | 3.0 | 0.00 | 0.00 | 0.00 | 70 | 1016.4 |
| 20260903192517 | 78 | 26 | 2.0 | 5.0 | 0.00 | 0.00 | 0.00 | 70 | 1016.4 |
| 20260903192018 | 78 | 57 | 2.0 | 3.0 | 0.00 | 0.00 | 0.00 | 69 | 1016.3 |
| 20260903191517 | 79 | 39 | 1.0 | 5.0 | 0.00 | 0.00 | 0.00 | 68 | 1016.3 |
| 20260903190518 | 79 | 29 | 2.0 | 5.0 | 0.00 | 0.00 | 0.00 | 67 | 1016.1 |
| 20260903185511 | 79 | 336 | 2.0 | 5.0 | 0.00 | 0.00 | 0.00 | 67 | 1016.0 |
| 20260903185018 | 79 | 38 | 2.0 | 7.0 | 0.00 | 0.00 | 0.00 | 66 | 1016.0 |
| 20260903184518 | 79 | 49 | 2.0 | 5.0 | 0.00 | 0.00 | 0.00 | 66 | 1016.0 |
| 20260903184017 | 79 | 53 | 3.0 | 7.0 | 0.00 | 0.00 | 0.00 | 66 | 1015.9 |
| 20260903183509 | 79 | 60 | 3.0 | 8.0 | 0.00 | 0.00 | 0.00 | 65 | 1015.8 |
| 20260903183018 | 80 | 47 | 3.0 | 8.0 | 0.00 | 0.00 | 0.00 | 65 | 1015.8 |
| 20260903182510 | 80 | 54 | 2.0 | 7.0 | 0.00 | 0.00 | 0.00 | 66 | 1015.7 |
| 20260903182017 | 80 | 52 | 3.0 | 7.0 | 0.00 | 0.00 | 0.00 | 65 | 1015.7 |
| 20260903181516 | 80 | 44 | 3.0 | 6.0 | 0.00 | 0.00 | 0.00 | 65 | 1015.7 |
| 20260903181018 | 80 | 43 | 3.0 | 6.0 | 0.00 | 0.00 | 0.00 | 64 | 1015.6 |
| 20260903180517 | 80 | 52 | 2.0 | 3.0 | 0.00 | 0.00 | 0.00 | 63 | 1015.6 |
| 20260903180018 | 80 | 58 | 2.0 | 5.0 | 0.00 | 0.00 | 0.00 | 62 | 1015.6 |
| 20260903175517 | 81 | 49 | 2.0 | 5.0 | 0.00 | 0.00 | 0.00 | 61 | 1015.6 |
| 20260903175018 | 81 | 42 | 2.0 | 5.0 | 0.00 | 0.00 | 0.00 | 60 | 1015.6 |
| 20260903174517 | 81 | 46 | 2.0 | 5.0 | 0.00 | 0.00 | 0.00 | 59 | 1015.5 |
| 20260903174018 | 81 | 51 | 3.0 | 6.0 | 0.00 | 0.00 | 0.00 | 58 | 1015.5 |
| 20260903173510 | 81 | 45 | 2.0 | 7.0 | 0.00 | 0.00 | 0.00 | 57 | 1015.4 |
| 20260903173018 | 81 | 47 | 4.0 | 10.0 | 0.00 | 0.00 | 0.00 | 56 | 1015.4 |
| 20260903172517 | 82 | 46 | 3.0 | 10.0 | 0.00 | 0.00 | 0.00 | 55 | 1015.4 |
| 20260903172017 | 82 | 46 | 4.0 | 9.0 | 0.00 | 0.00 | 0.00 | 54 | 1015.3 |
| 20260903171019 | 82 | 60 | 5.0 | 8.0 | 0.00 | 0.00 | 0.00 | 52 | 1015.4 |
| 20260903170516 | 83 | 45 | 6.0 | 12.0 | 0.00 | 0.00 | 0.00 | 52 | 1015.3 |
| 20260903165517 | 83 | 51 | 5.0 | 10.0 | 0.00 | 0.00 | 0.00 | 49 | 1015.3 |
| 20260903165018 | 84 | 48 | 3.0 | 7.0 | 0.00 | 0.00 | 0.00 | 48 | 1015.3 |